Kansas Department of Transportation
RWIS(Road and Runway Information System) Map and Weather Data





Station
Surface
Air
Wind
Site IDSensor TypeLocationTemperature (°F)Temperature (°F)Humidity (%)Speed (mi/h)Gusts (mi/h)DirectionTime
123002AtmosphericBonner Springs 43631618SWJan 24 2022 1:00AM
123002ApproachBonner Springs39     Jan 24 2022 1:00AM
123002DeckBonner Springs39     Jan 24 2022 1:00AM
123014AtmosphericBull Creek 4365812SWJan 24 2022 1:00AM
123014DeckBull Creek41     Jan 24 2022 1:00AM
123014DepartureBull Creek41     Jan 24 2022 1:00AM
123015AtmosphericLeavenworth 4561411WSWJan 24 2022 1:00AM
123015DeckLeavenworth36     Jan 24 2022 1:00AM
123015DepartureLeavenworth37     Jan 24 2022 1:00AM
123020AtmosphericMayetta 455447SWJan 24 2022 1:00AM
123020RoadwayMayetta39     Jan 24 2022 1:00AM
123020DeckMayetta41     Jan 24 2022 1:00AM
505000AtmosphericKTA 1 376901SJan 24 2022 12:50AM
505000ApproachKTA 141     Jan 24 2022 12:50AM
505000DeckKTA 137     Jan 24 2022 12:50AM
505001AtmosphericKTA 2 377367SWJan 24 2022 12:50AM
505001ApproachKTA 239     Jan 24 2022 12:50AM
505001DeckKTA 237     Jan 24 2022 12:50AM
505002AtmosphericKTA 3 378014WJan 24 2022 12:50AM
505002ApproachKTA 339     Jan 24 2022 12:50AM
505002DeckKTA 341     Jan 24 2022 12:50AM
505004AtmosphericKTA 5 45991116WNWJan 24 2022 12:52AM
505004RoadwayKTA 541     Jan 24 2022 12:52AM
505004RoadwayKTA 541     Jan 24 2022 12:52AM
505006AtmosphericKTA 7 4345712 Jan 24 2022 12:54AM
505006ApproachKTA 743     Jan 24 2022 12:54AM
505006DeckKTA 743     Jan 24 2022 12:54AM
505007AtmosphericKTA 8 4664913WSWJan 24 2022 12:54AM
505007ApproachKTA 843     Jan 24 2022 12:54AM
505007DeckKTA 843     Jan 24 2022 12:54AM
505008AtmosphericKTA 9 465526WJan 24 2022 12:54AM
505008ApproachKTA 941     Jan 24 2022 12:54AM
505008DeckKTA 941     Jan 24 2022 12:54AM
505009AtmosphericKTA 10 557736SSWJan 24 2022 12:54AM
505009ApproachKTA 1041     Jan 24 2022 12:54AM
505009DeckKTA 1039     Jan 24 2022 12:54AM
505010AtmosphericWebb 455557SSEJan 24 2022 1:00AM
505010DeckWebb43     Jan 24 2022 1:00AM
505010NullWebb39     Jan 24 2022 1:00AM
505014AtmosphericI-135 455649SWJan 24 2022 1:00AM
505014ApproachI-13541     Jan 24 2022 1:00AM
505014DeckI-13541     Jan 24 2022 1:00AM
540000AtmosphericBlue Rapids 465134WJan 24 2022 1:00AM
540000DeckBlue Rapids45     Jan 24 2022 1:00AM
540000DepartureBlue Rapids41     Jan 24 2022 1:00AM
540001AtmosphericSabetha 456159WJan 24 2022 1:00AM
540001ApproachSabethaUnavailable     Jan 24 2022 1:00AM
540001DeckSabetha37     Jan 24 2022 1:00AM
540002AtmosphericWestgate 504449SWJan 24 2022 1:00AM
540002DeckWestgate45     Jan 24 2022 1:00AM
540002DepartureWestgate43     Jan 24 2022 1:00AM
540003AtmosphericEmporia 50521116WJan 24 2022 1:00AM
540003ApproachEmporia45     Jan 24 2022 1:00AM
540003DeckEmporia46     Jan 24 2022 1:00AM
540005AtmosphericLawrence 4653612SSEJan 24 2022 1:00AM
540005ApproachLawrence41     Jan 24 2022 1:00AM
540005DeckLawrence36     Jan 24 2022 1:00AM
540006AtmosphericTroy 418526SWJan 24 2022 1:00AM
540006DeckTroy37     Jan 24 2022 1:00AM
540006DepartureTroyUnavailable     Jan 24 2022 1:00AM
540007AtmosphericManhattan 485156SWJan 24 2022 1:00AM
540007DepartureManhattan46     Jan 24 2022 1:00AM
540007DeckManhattan43     Jan 24 2022 1:00AM
541000AtmosphericElkhart 276977SSWJan 24 2022 12:40AM
541000ApproachElkhart30     Jan 24 2022 12:40AM
541000DeckElkhart32     Jan 24 2022 12:40AM
541001AtmosphericSyracuse 277323NNWJan 24 2022 1:00AM
541001Out of Service for WinterSyracuse30     Jan 24 2022 1:00AM
541001DeckSyracuse30     Jan 24 2022 1:00AM
541003AtmosphericFord 307424WJan 24 2022 1:00AM
541003DeckFordUnavailable     Jan 24 2022 1:00AM
541003DepartureFord32     Jan 24 2022 1:00AM
541004AtmosphericScott 3465710WJan 24 2022 1:00AM
541004DepartureScott34     Jan 24 2022 1:00AM
541005AtmosphericNess 326946WSWJan 24 2022 1:00AM
541005DeckNess36     Jan 24 2022 1:00AM
541005DepartureNess32     Jan 24 2022 1:00AM
541007AtmosphericGarden City 3960711WSWJan 24 2022 1:00AM
541007ApproachGarden City37     Jan 24 2022 1:00AM
543000AtmosphericJunction City 463326NNEJan 24 2022 1:00AM
543000ApproachJunction City43     Jan 24 2022 1:00AM
543000DeckJunction City45     Jan 24 2022 1:00AM
543001AtmosphericEllsworth 45521114WSWJan 24 2022 1:00AM
543001RoadwayEllsworth41     Jan 24 2022 1:00AM
543002AtmosphericMcPherson 415779SWJan 24 2022 1:00AM
543002ApproachMcPherson37     Jan 24 2022 1:00AM
543002DeckMcPherson39     Jan 24 2022 1:00AM
543003AtmosphericSalina 4339912ENEJan 24 2022 1:00AM
543003DepartureSalina41     Jan 24 2022 1:00AM
543003RoadwaySalina43     Jan 24 2022 1:00AM
543004AtmosphericConcordia 435379WSWJan 24 2022 1:00AM
543004ApproachConcordia34     Jan 24 2022 1:00AM
543004DeckConcordia45     Jan 24 2022 1:00AM
543005AtmosphericPeabody 4555712SSWJan 24 2022 1:00AM
543005ApproachPeabody41     Jan 24 2022 1:00AM
543005DeckPeabody43     Jan 24 2022 1:00AM
560000AtmosphericEdson 345768WJan 24 2022 1:00AM
560000RoadwayEdson32     Jan 24 2022 1:00AM
560000RoadwayEdson32     Jan 24 2022 1:00AM
560001AtmosphericOakley 395178WJan 24 2022 1:00AM
560001ApproachOakley34     Jan 24 2022 1:00AM
560001DeckOakley36     Jan 24 2022 1:00AM
560002AtmosphericAtwood 375347WSWJan 24 2022 1:00AM
560002ApproachAtwood34     Jan 24 2022 1:00AM
560002DeckAtwood36     Jan 24 2022 1:00AM
560003AtmosphericJennings 394927WJan 24 2022 1:00AM
560003ApproachJennings34     Jan 24 2022 1:00AM
560003DeckJennings      Jan 24 2022 1:00AM
560003DeckJennings37     Jan 24 2022 1:00AM
560004AtmosphericWakeeney 346246WJan 24 2022 1:00AM
560004ApproachWakeeney36     Jan 24 2022 1:00AM
560004DeckWakeeney36     Jan 24 2022 1:00AM
560005AtmosphericWalker 3753711WSWJan 24 2022 1:00AM
560005ApproachWalker37     Jan 24 2022 1:00AM
560005DeckWalker37     Jan 24 2022 1:00AM
560006AtmosphericBow Creek(Stockton) 434200WJan 24 2022 1:00AM
560006ApproachBow Creek(Stockton)39     Jan 24 2022 1:00AM
560006DeckBow Creek(Stockton)39     Jan 24 2022 1:00AM
560007AtmosphericLebanon 395346WSWJan 24 2022 1:00AM
560007ApproachLebanonUnavailable     Jan 24 2022 1:00AM
560007DeckLebanon43     Jan 24 2022 1:00AM
560008AtmosphericWallace 306013WNWJan 24 2022 1:00AM
560008ApproachWallace32     Jan 24 2022 1:00AM
560008DeckWallace30     Jan 24 2022 1:00AM
572000AtmosphericGreat Bend 346267WJan 24 2022 1:00AM
572000ApproachGreat Bend36     Jan 24 2022 1:00AM
572000DeckGreat Bend36     Jan 24 2022 1:00AM
572001AtmosphericPratt 395913SWJan 24 2022 1:00AM
572001ApproachPratt34     Jan 24 2022 1:00AM
572001DeckPratt37     Jan 24 2022 1:00AM
572002AtmosphericAnthony 367135WJan 24 2022 1:00AM
572002ApproachAnthony36     Jan 24 2022 1:00AM
572002DeckAnthony34     Jan 24 2022 1:00AM
573000AtmosphericEureka 46551116WSWJan 24 2022 1:00AM
573000DeckEureka39     Jan 24 2022 1:00AM
573000DepartureEureka37     Jan 24 2022 1:00AM
573001AtmosphericGarnett 455845WSWJan 24 2022 1:00AM
573001ApproachGarnett41     Jan 24 2022 1:00AM
573001DeckGarnett43     Jan 24 2022 1:00AM
573003AtmosphericChetopa 397124SSEJan 24 2022 1:00AM
573003DeckChetopa      Jan 24 2022 1:00AM
573003DeckChetopaUnavailable     Jan 24 2022 1:00AM
573003DepartureChetopaUnavailable     Jan 24 2022 1:00AM
573004AtmosphericChanute 4559711SWJan 24 2022 1:00AM
573004ApproachChanute41     Jan 24 2022 1:00AM
573004DeckChanute41     Jan 24 2022 1:00AM